Location: *
(44.3683°N, 6.6958°E)
Time: 05:37:11
(UTC+00:00)

SPOT 3 Rocket - Pass Details

Date: 14 October 2019
Orbit: 779 x 794 km, 98.8° (Epoch: 17 November)

Event Time Altitude Azimuth Distance (km) Brightness Sun altitude
Exits shadow 18:39:52 38° 75° (ENE) 1,188 4.0 -20.1°
Maximum altitude 18:40:09 38° 67° (ENE) 1,182 4.0 -20.2°
Drops below altitude 10° 18:44:56 10° 1° (N) 2,362 6.1 -21.0°
Sets 18:47:24 0° 353° (N) 3,297 7.0 -21.5°
